Terminal Aerodrome Forecast
Issued by NWS

Home | Current Version | Previous Version | Text Only | Print | Product List | Glossary On
Versions: 1 2 3 4 5 6 7 8 9 10 11 12 13 14 15 16 17 18 19 20 21 22 23 24
763
FTUS46 KSTO 101139
TAFRDD
TAF
KRDD 101139Z 1012/1112 VRB03KT P6SM SCT250
     FM102100 VRB02KT P6SM OVC100
     FM110200 00000KT 4SM -RA OVC050=

USA.gov is the U.S. government's official web portal to all federal, state and local government web resources and services.